Time,TemperatureF,DewpointF,PressureIn,WindDirection,WindDirectionDegrees,WindSpeedMPH,WindSpeedGustMPH,Humidity,HourlyPrecipIn,Conditions,Clouds,dailyrainin,SoftwareType,DateUTC
2013-04-27 00:13:00,50.0,36.0,27.08,South,179,7.0,7.0,56,0.00,,,-99.99,,2013-04-27 05:13:00,
2013-04-27 00:18:00,50.0,36.0,27.08,SSW,195,6.0,7.0,57,0.00,,,-99.99,,2013-04-27 05:18:00,
2013-04-27 00:23:00,50.0,36.0,27.08,SSW,197,6.0,7.0,58,0.00,,,-99.99,,2013-04-27 05:23:00,
2013-04-27 00:28:00,50.0,37.0,27.08,SSW,202,6.0,6.0,60,0.00,,,-99.99,,2013-04-27 05:28:00,
2013-04-27 00:33:00,49.0,36.0,27.08,SW,217,5.0,6.0,61,0.00,,,-99.99,,2013-04-27 05:33:00,
2013-04-27 00:38:00,49.0,37.0,27.08,SW,216,5.0,7.0,62,0.00,,,-99.99,,2013-04-27 05:38:00,
2013-04-27 00:53:00,49.0,37.0,27.08,SW,219,5.0,6.0,65,0.00,,,-99.99,,2013-04-27 05:53:00,
2013-04-27 00:58:00,49.0,37.0,27.08,SW,216,6.0,6.0,66,0.00,,,-99.99,,2013-04-27 05:58:00,
2013-04-27 01:08:00,49.0,37.0,27.08,SW,223,6.0,7.0,66,0.00,,,-99.99,,2013-04-27 06:08:00,
2013-04-27 01:13:00,49.0,43.0,27.08,SW,220,5.0,6.0,81,0.00,,,-99.99,,2013-04-27 06:13:00,
2013-04-27 01:18:00,48.0,43.0,27.08,SW,230,5.0,6.0,82,0.00,,,-99.99,,2013-04-27 06:18:00,
2013-04-27 01:23:00,48.0,39.0,27.08,WSW,237,6.0,7.0,70,0.00,,,-99.99,,2013-04-27 06:23:00,
2013-04-27 01:28:00,49.0,41.0,27.08,WSW,250,6.0,9.0,72,0.00,,,-99.99,,2013-04-27 06:28:00,
2013-04-27 01:33:00,49.0,45.0,27.08,WSW,248,6.0,8.0,85,0.00,,,-99.99,,2013-04-27 06:33:00,
2013-04-27 01:48:00,49.0,41.0,27.08,WSW,245,6.0,7.0,75,0.00,,,-99.99,,2013-04-27 06:48:00,
2013-04-27 01:53:00,49.0,43.0,27.08,WSW,247,8.0,9.0,78,0.00,,,-99.99,,2013-04-27 06:53:00,
2013-04-27 02:03:00,49.0,43.0,27.08,WSW,248,7.0,9.0,79,0.00,,,-99.99,,2013-04-27 07:03:00,
2013-04-27 02:08:00,49.0,43.0,27.08,WSW,248,7.0,9.0,80,0.00,,,-99.99,,2013-04-27 07:08:00,
2013-04-27 02:13:00,49.0,43.0,27.08,WSW,237,7.0,9.0,79,0.00,,,-99.99,,2013-04-27 07:13:00,
2013-04-27 02:18:00,49.0,43.0,27.08,WSW,252,6.0,7.0,81,0.00,,,-99.99,,2013-04-27 07:18:00,
2013-04-27 02:23:00,49.0,43.0,27.07,WSW,250,7.0,8.0,81,0.00,,,-99.99,,2013-04-27 07:23:00,
2013-04-27 02:28:00,49.0,43.0,27.07,WSW,248,8.0,9.0,81,0.00,,,-99.99,,2013-04-27 07:28:00,
2013-04-27 02:33:00,49.0,43.0,27.07,WSW,241,7.0,9.0,81,0.00,,,-99.99,,2013-04-27 07:33:00,
2013-04-27 02:38:00,49.0,45.0,27.07,WSW,245,6.0,8.0,83,0.00,,,-99.99,,2013-04-27 07:38:00,
2013-04-27 02:43:00,49.0,45.0,27.07,WSW,251,8.0,9.0,82,0.00,,,-99.99,,2013-04-27 07:43:00,
2013-04-27 02:48:00,49.0,43.0,27.07,WSW,250,8.0,9.0,81,0.00,,,-99.99,,2013-04-27 07:48:00,
2013-04-27 02:53:00,49.0,46.0,27.07,WSW,255,7.0,8.0,91,0.00,,,-99.99,,2013-04-27 07:53:00,
2013-04-27 02:58:00,49.0,46.0,27.06,WSW,251,7.0,9.0,91,0.00,,,-99.99,,2013-04-27 07:58:00,
2013-04-27 03:03:00,49.0,43.0,27.06,WSW,250,7.0,8.0,81,0.00,,,-99.99,,2013-04-27 08:03:00,
2013-04-27 03:08:00,49.0,43.0,27.06,WSW,255,7.0,9.0,81,0.00,,,-99.99,,2013-04-27 08:08:00,
2013-04-27 03:13:00,49.0,43.0,27.06,WSW,255,7.0,8.0,81,0.00,,,-99.99,,2013-04-27 08:13:00,
2013-04-27 03:23:00,49.0,45.0,27.06,WSW,251,7.0,8.0,82,0.00,,,-99.99,,2013-04-27 08:23:00,
2013-04-27 03:28:00,49.0,45.0,27.05,WSW,252,6.0,8.0,83,0.00,,,-99.99,,2013-04-27 08:28:00,
2013-04-27 03:33:00,49.0,45.0,27.05,WSW,250,7.0,8.0,82,0.00,,,-99.99,,2013-04-27 08:33:00,
2013-04-27 03:43:00,49.0,45.0,27.05,West,265,8.0,9.0,82,0.00,,,-99.99,,2013-04-27 08:43:00,
2013-04-27 03:48:00,49.0,45.0,27.06,WSW,258,7.0,8.0,82,0.00,,,-99.99,,2013-04-27 08:48:00,
2013-04-27 03:58:00,48.0,43.0,27.05,WSW,255,7.0,8.0,83,0.00,,,-99.99,,2013-04-27 08:58:00,
2013-04-27 04:03:00,48.0,43.0,27.05,West,259,6.0,7.0,84,0.00,,,-99.99,,2013-04-27 09:03:00,
2013-04-27 04:08:00,48.0,43.0,27.05,WSW,257,6.0,7.0,84,0.00,,,-99.99,,2013-04-27 09:08:00,
2013-04-27 04:18:00,48.0,43.0,27.05,West,268,7.0,8.0,83,0.00,,,-99.99,,2013-04-27 09:18:00,
2013-04-27 04:23:00,48.0,43.0,27.05,WSW,258,7.0,8.0,84,0.00,,,-99.99,,2013-04-27 09:23:00,
2013-04-27 04:28:00,48.0,43.0,27.05,WSW,257,7.0,8.0,84,0.00,,,-99.99,,2013-04-27 09:28:00,
2013-04-27 04:38:00,48.0,45.0,27.05,West,259,6.0,6.0,87,0.00,,,-99.99,,2013-04-27 09:38:00,
2013-04-27 04:43:00,47.0,43.0,27.05,WSW,257,5.0,6.0,87,0.00,,,-99.99,,2013-04-27 09:43:00,
2013-04-27 04:48:00,47.0,43.0,27.05,WSW,252,5.0,6.0,88,0.00,,,-99.99,,2013-04-27 09:48:00,
2013-04-27 04:58:00,47.0,45.0,27.05,WSW,255,5.0,6.0,93,0.00,,,-99.99,,2013-04-27 09:58:00,
2013-04-27 05:03:00,47.0,45.0,27.04,West,262,6.0,6.0,93,0.00,,,-99.99,,2013-04-27 10:03:00,
2013-04-27 05:13:00,47.0,45.0,27.04,West,262,6.0,7.0,89,0.00,,,-99.99,,2013-04-27 10:13:00,
2013-04-27 05:18:00,47.0,45.0,27.04,West,259,6.0,8.0,89,0.00,,,-99.99,,2013-04-27 10:18:00,
2013-04-27 05:23:00,47.0,45.0,27.04,WSW,258,6.0,8.0,89,0.00,,,-99.99,,2013-04-27 10:23:00,
2013-04-27 05:28:00,47.0,43.0,27.04,West,259,6.0,7.0,86,0.00,,,-99.99,,2013-04-27 10:28:00,
2013-04-27 05:38:00,48.0,45.0,27.04,WSW,255,6.0,8.0,85,0.00,,,-99.99,,2013-04-27 10:38:00,
2013-04-27 05:43:00,48.0,43.0,27.04,West,268,5.0,7.0,84,0.00,,,-99.99,,2013-04-27 10:43:00,
2013-04-27 05:53:00,47.0,43.0,27.04,West,259,4.0,5.0,85,0.00,,,-99.99,,2013-04-27 10:53:00,
2013-04-27 05:58:00,46.0,41.0,27.04,West,268,5.0,6.0,85,0.00,,,-99.99,,2013-04-27 10:58:00,
2013-04-27 06:03:00,46.0,43.0,27.04,West,261,5.0,6.0,86,0.00,,,-99.99,,2013-04-27 11:03:00,
2013-04-27 06:08:00,46.0,43.0,27.04,WSW,258,5.0,6.0,86,0.00,,,-99.99,,2013-04-27 11:08:00,
2013-04-27 06:13:00,47.0,45.0,27.04,West,262,6.0,7.0,94,0.00,,,-99.99,,2013-04-27 11:13:00,
2013-04-27 06:18:00,47.0,45.0,27.04,West,261,6.0,7.0,93,0.00,,,-99.99,,2013-04-27 11:18:00,
2013-04-27 06:23:00,47.0,45.0,27.04,West,265,4.0,5.0,93,0.00,,,-99.99,,2013-04-27 11:23:00,
2013-04-27 06:33:00,46.0,45.0,27.04,West,265,5.0,5.0,93,0.00,,,-99.99,,2013-04-27 11:33:00,
2013-04-27 06:38:00,45.0,41.0,27.04,WSW,255,4.0,5.0,88,0.00,,,-99.99,,2013-04-27 11:38:00,
2013-04-27 06:43:00,45.0,41.0,27.04,West,264,4.0,5.0,88,0.00,,,-99.99,,2013-04-27 11:43:00,
2013-04-27 06:53:00,45.0,43.0,27.04,West,266,5.0,5.0,89,0.00,,,-99.99,,2013-04-27 11:53:00,
2013-04-27 06:58:00,45.0,43.0,27.04,West,261,4.0,5.0,90,0.00,,,-99.99,,2013-04-27 11:58:00,
2013-04-27 07:03:00,45.0,43.0,27.04,WSW,257,4.0,5.0,90,0.00,,,-99.99,,2013-04-27 12:03:00,
2013-04-27 07:08:00,45.0,41.0,27.04,West,259,4.0,5.0,88,0.00,,,-99.99,,2013-04-27 12:08:00,
2013-04-27 07:13:00,45.0,43.0,27.04,West,259,4.0,5.0,90,0.00,,,-99.99,,2013-04-27 12:13:00,
2013-04-27 07:18:00,45.0,43.0,27.04,WSW,257,4.0,4.0,90,0.00,,,-99.99,,2013-04-27 12:18:00,
2013-04-27 07:28:00,46.0,43.0,27.04,WSW,254,4.0,5.0,89,0.00,,,-99.99,,2013-04-27 12:28:00,
2013-04-27 07:33:00,46.0,43.0,27.04,WSW,255,5.0,5.0,88,0.00,,,-99.99,,2013-04-27 12:33:00,
2013-04-27 07:38:00,46.0,43.0,27.04,WSW,255,4.0,6.0,90,0.00,,,-99.99,,2013-04-27 12:38:00,
2013-04-27 07:53:00,48.0,45.0,27.04,North,0,0.0,0.0,87,0.00,,,-99.99,,2013-04-27 12:53:00,
2013-04-27 07:58:00,49.0,45.0,27.04,North,0,0.0,0.0,84,0.00,,,-99.99,,2013-04-27 12:58:00,
2013-04-27 08:13:00,50.0,45.0,27.04,WSW,251,4.0,5.0,83,0.00,,,-99.99,,2013-04-27 13:13:00,
2013-04-27 08:18:00,50.0,45.0,27.04,WSW,248,5.0,6.0,81,0.00,,,-99.99,,2013-04-27 13:18:00,
2013-04-27 08:23:00,50.0,45.0,27.04,WSW,250,5.0,7.0,80,0.00,,,-99.99,,2013-04-27 13:23:00,
2013-04-27 08:28:00,50.0,45.0,27.04,WSW,248,4.0,6.0,82,0.00,,,-99.99,,2013-04-27 13:28:00,
2013-04-27 08:33:00,50.0,45.0,27.05,WSW,248,4.0,5.0,82,0.00,,,-99.99,,2013-04-27 13:33:00,
2013-04-27 08:38:00,50.0,46.0,27.04,WSW,257,3.0,5.0,87,0.00,,,-99.99,,2013-04-27 13:38:00,
2013-04-27 08:43:00,50.0,45.0,27.05,West,259,5.0,7.0,82,0.00,,,-99.99,,2013-04-27 13:43:00,
2013-04-27 08:58:00,52.0,48.0,27.04,West,265,5.0,7.0,84,0.00,,,-99.99,,2013-04-27 13:58:00,
2013-04-27 09:03:00,53.0,48.0,27.04,WSW,257,1.0,3.0,81,0.00,,,-99.99,,2013-04-27 14:03:00,
2013-04-27 09:13:00,53.0,48.0,27.05,North,0,0.0,0.0,82,0.00,,,-99.99,,2013-04-27 14:13:00,
2013-04-27 09:23:00,54.0,46.0,27.04,West,259,3.0,4.0,78,0.00,,,-99.99,,2013-04-27 14:23:00,
2013-04-27 09:33:00,56.0,48.0,27.04,North,0,0.0,0.0,76,0.00,,,-99.99,,2013-04-27 14:33:00,
2013-04-27 09:43:00,57.0,50.0,27.04,North,0,0.0,0.0,77,0.00,,,-99.99,,2013-04-27 14:43:00,
2013-04-27 09:53:00,59.0,48.0,27.04,WSW,248,5.0,6.0,69,0.00,,,-99.99,,2013-04-27 14:53:00,
2013-04-27 10:03:00,61.0,48.0,27.03,WSW,245,5.0,6.0,62,0.00,,,-99.99,,2013-04-27 15:03:00,
2013-04-27 10:08:00,61.0,46.0,27.03,WSW,244,6.0,7.0,60,0.00,,,-99.99,,2013-04-27 15:08:00,
2013-04-27 10:18:00,63.0,46.0,27.03,SSW,196,5.0,7.0,56,0.00,,,-99.99,,2013-04-27 15:18:00,
2013-04-27 10:33:00,64.0,45.0,27.03,SSW,195,7.0,8.0,50,0.00,,,-99.99,,2013-04-27 15:33:00,
2013-04-27 10:38:00,65.0,45.0,27.03,SSW,204,7.0,8.0,48,0.00,,,-99.99,,2013-04-27 15:38:00,
2013-04-27 10:43:00,65.0,48.0,27.02,SSW,203,6.0,9.0,54,0.00,,,-99.99,,2013-04-27 15:43:00,
2013-04-27 10:48:00,66.0,48.0,27.02,SW,223,8.0,9.0,54,0.00,,,-99.99,,2013-04-27 15:48:00,
2013-04-27 10:53:00,66.0,48.0,27.02,SSW,206,8.0,11.0,53,0.00,,,-99.99,,2013-04-27 15:53:00,
2013-04-27 10:58:00,66.0,48.0,27.02,SSW,199,7.0,9.0,54,0.00,,,-99.99,,2013-04-27 15:58:00,
2013-04-27 11:08:00,68.0,46.0,27.02,SSE,165,9.0,10.0,46,0.00,,,-99.99,,2013-04-27 16:08:00,
2013-04-27 11:13:00,68.0,50.0,27.02,South,178,6.0,10.0,53,0.00,,,-99.99,,2013-04-27 16:13:00,
2013-04-27 11:18:00,68.0,50.0,27.02,SSE,149,10.0,12.0,52,0.00,,,-99.99,,2013-04-27 16:18:00,
2013-04-27 11:23:00,69.0,52.0,27.01,South,171,9.0,12.0,53,0.00,,,-99.99,,2013-04-27 16:23:00,
2013-04-27 11:33:00,70.0,50.0,27.01,SSE,164,10.0,13.0,50,0.00,,,-99.99,,2013-04-27 16:33:00,
2013-04-27 11:43:00,71.0,54.0,27.01,South,185,11.0,13.0,54,0.00,,,-99.99,,2013-04-27 16:43:00,
2013-04-27 11:48:00,72.0,52.0,27.01,SSW,197,9.0,11.0,50,0.00,,,-99.99,,2013-04-27 16:48:00,
2013-04-27 11:53:00,72.0,52.0,27.01,South,179,8.0,10.0,50,0.00,,,-99.99,,2013-04-27 16:53:00,
2013-04-27 12:03:00,73.0,52.0,27.01,South,178,9.0,12.0,46,0.00,,,-99.99,,2013-04-27 17:03:00,
2013-04-27 12:08:00,73.0,50.0,27.01,SSE,165,8.0,10.0,45,0.00,,,-99.99,,2013-04-27 17:08:00,
2013-04-27 12:13:00,74.0,50.0,27.00,SW,223,9.0,12.0,42,0.00,,,-99.99,,2013-04-27 17:13:00,
2013-04-27 12:23:00,74.0,45.0,27.00,West,259,7.0,9.0,35,0.00,,,-99.99,,2013-04-27 17:23:00,
2013-04-27 12:33:00,75.0,45.0,26.99,SSW,196,11.0,13.0,35,0.00,,,-99.99,,2013-04-27 17:33:00,
2013-04-27 12:43:00,75.0,43.0,26.99,SSW,200,11.0,13.0,32,0.00,,,-99.99,,2013-04-27 17:43:00,
2013-04-27 12:53:00,76.0,45.0,26.99,SW,217,10.0,14.0,33,0.00,,,-99.99,,2013-04-27 17:53:00,
2013-04-27 12:58:00,76.0,45.0,26.98,SSW,200,6.0,8.0,33,0.00,,,-99.99,,2013-04-27 17:58:00,
2013-04-27 13:03:00,76.0,43.0,26.98,SSW,200,10.0,11.0,31,0.00,,,-99.99,,2013-04-27 18:03:00,
2013-04-27 13:08:00,76.0,39.0,26.97,SW,223,3.0,6.0,26,0.00,,,-99.99,,2013-04-27 18:08:00,
2013-04-27 13:13:00,76.0,41.0,26.97,WSW,247,6.0,8.0,29,0.00,,,-99.99,,2013-04-27 18:13:00,
2013-04-27 13:23:00,76.0,39.0,26.96,WSW,254,8.0,11.0,27,0.00,,,-99.99,,2013-04-27 18:23:00,
2013-04-27 13:28:00,76.0,30.0,26.96,WSW,244,3.0,8.0,19,0.00,,,-99.99,,2013-04-27 18:28:00,
2013-04-27 13:33:00,76.0,30.0,26.96,North,0,0.0,0.0,18,0.00,,,-99.99,,2013-04-27 18:33:00,
2013-04-27 13:38:00,76.0,30.0,26.96,SW,223,5.0,8.0,19,0.00,,,-99.99,,2013-04-27 18:38:00,
2013-04-27 13:43:00,76.0,30.0,26.96,SW,233,1.0,4.0,19,0.00,,,-99.99,,2013-04-27 18:43:00,
2013-04-27 13:53:00,77.0,32.0,26.95,SW,230,4.0,7.0,19,0.00,,,-99.99,,2013-04-27 18:53:00,
2013-04-27 13:58:00,77.0,34.0,26.95,South,179,3.0,7.0,21,0.00,,,-99.99,,2013-04-27 18:58:00,
2013-04-27 14:03:00,78.0,37.0,26.94,SSE,158,9.0,13.0,23,0.00,,,-99.99,,2013-04-27 19:03:00,
2013-04-27 14:08:00,77.0,34.0,26.94,WNW,282,11.0,15.0,21,0.00,,,-99.99,,2013-04-27 19:08:00,
2013-04-27 14:13:00,77.0,34.0,26.94,NNW,337,7.0,9.0,21,0.00,,,-99.99,,2013-04-27 19:13:00,
2013-04-27 14:23:00,78.0,36.0,26.94,WNW,286,10.0,13.0,22,0.00,,,-99.99,,2013-04-27 19:23:00,
2013-04-27 14:33:00,77.0,32.0,26.94,West,264,8.0,14.0,20,0.00,,,-99.99,,2013-04-27 19:33:00,
2013-04-27 14:43:00,77.0,28.0,26.93,WSW,250,6.0,8.0,17,0.00,,,-99.99,,2013-04-27 19:43:00,
2013-04-27 14:48:00,78.0,28.0,26.93,West,272,9.0,14.0,16,0.00,,,-99.99,,2013-04-27 19:48:00,
2013-04-27 14:53:00,78.0,23.0,26.92,NW,310,8.0,12.0,13,0.00,,,-99.99,,2013-04-27 19:53:00,
2013-04-27 15:03:00,78.0,27.0,26.92,WNW,303,6.0,10.0,15,0.00,,,-99.99,,2013-04-27 20:03:00,
2013-04-27 15:08:00,78.0,30.0,26.92,West,261,3.0,5.0,18,0.00,,,-99.99,,2013-04-27 20:08:00,
2013-04-27 15:13:00,78.0,30.0,26.92,NW,313,11.0,15.0,17,0.00,,,-99.99,,2013-04-27 20:13:00,
2013-04-27 15:23:00,78.0,30.0,26.91,WNW,300,10.0,13.0,17,0.00,,,-99.99,,2013-04-27 20:23:00,
2013-04-27 15:28:00,78.0,30.0,26.91,West,276,10.0,12.0,18,0.00,,,-99.99,,2013-04-27 20:28:00,
2013-04-27 15:33:00,78.0,30.0,26.91,WNW,298,12.0,15.0,17,0.00,,,-99.99,,2013-04-27 20:33:00,
2013-04-27 15:38:00,78.0,30.0,26.91,NW,313,9.0,12.0,18,0.00,,,-99.99,,2013-04-27 20:38:00,
2013-04-27 15:43:00,78.0,30.0,26.90,WNW,289,0.0,2.0,17,0.00,,,-99.99,,2013-04-27 20:43:00,
2013-04-27 15:48:00,78.0,32.0,26.90,WSW,248,9.0,13.0,19,0.00,,,-99.99,,2013-04-27 20:48:00,
2013-04-27 15:58:00,80.0,32.0,26.90,SW,228,5.0,7.0,17,0.00,,,-99.99,,2013-04-27 20:58:00,
2013-04-27 16:08:00,79.0,32.0,26.89,NW,305,9.0,12.0,18,0.00,,,-99.99,,2013-04-27 21:08:00,
2013-04-27 16:18:00,79.0,32.0,26.89,NW,323,9.0,11.0,18,0.00,,,-99.99,,2013-04-27 21:18:00,
2013-04-27 16:23:00,79.0,28.0,26.88,WNW,288,4.0,9.0,16,0.00,,,-99.99,,2013-04-27 21:23:00,
2013-04-27 16:28:00,79.0,32.0,26.88,WNW,290,7.0,9.0,18,0.00,,,-99.99,,2013-04-27 21:28:00,
2013-04-27 16:33:00,80.0,32.0,26.88,SSW,192,0.0,3.0,17,0.00,,,-99.99,,2013-04-27 21:33:00,
2013-04-27 16:38:00,80.0,30.0,26.88,SSE,147,5.0,7.0,16,0.00,,,-99.99,,2013-04-27 21:38:00,
2013-04-27 16:43:00,79.0,30.0,26.88,WNW,289,5.0,7.0,17,0.00,,,-99.99,,2013-04-27 21:43:00,
2013-04-27 18:43:00,82.0,37.0,26.84,SSW,213,2.0,6.0,21,0.00,,,-99.99,,2013-04-27 23:43:00,
2013-04-27 18:48:00,82.0,32.0,26.84,North,0,0.0,0.0,16,0.00,,,-99.99,,2013-04-27 23:48:00,
2013-04-27 18:58:00,83.0,32.0,26.84,North,0,0.0,0.0,16,0.00,,,-99.99,,2013-04-27 23:58:00,
2013-04-27 19:08:00,83.0,30.0,26.84,North,0,0.0,0.0,15,0.00,,,-99.99,,2013-04-28 00:08:00,
2013-04-27 19:18:00,82.0,30.0,26.84,North,0,0.0,0.0,15,0.00,,,-99.99,,2013-04-28 00:18:00,
2013-04-27 19:28:00,81.0,32.0,26.84,North,0,0.0,0.0,17,0.00,,,-99.99,,2013-04-28 00:28:00,
2013-04-27 19:38:00,78.0,34.0,26.84,SSW,195,5.0,6.0,20,0.00,,,-99.99,,2013-04-28 00:38:00,
2013-04-27 19:43:00,77.0,32.0,26.84,SSE,155,5.0,6.0,20,0.00,,,-99.99,,2013-04-28 00:43:00,
2013-04-27 19:48:00,76.0,34.0,26.84,SSE,151,5.0,6.0,22,0.00,,,-99.99,,2013-04-28 00:48:00,
2013-04-27 19:53:00,75.0,34.0,26.84,SSE,155,5.0,6.0,23,0.00,,,-99.99,,2013-04-28 00:53:00,
2013-04-27 19:58:00,74.0,36.0,26.84,SSE,154,6.0,6.0,24,0.00,,,-99.99,,2013-04-28 00:58:00,
2013-04-27 20:03:00,73.0,36.0,26.83,SSE,159,6.0,6.0,25,0.00,,,-99.99,,2013-04-28 01:03:00,
2013-04-27 20:13:00,71.0,34.0,26.84,SSE,159,6.0,7.0,25,0.00,,,-99.99,,2013-04-28 01:13:00,
2013-04-27 20:23:00,70.0,28.0,26.83,SSE,165,7.0,7.0,21,0.00,,,-99.99,,2013-04-28 01:23:00,
2013-04-27 20:28:00,70.0,32.0,26.83,SSE,165,7.0,7.0,25,0.00,,,-99.99,,2013-04-28 01:28:00,
2013-04-27 20:33:00,69.0,34.0,26.83,SSE,166,6.0,6.0,27,0.00,,,-99.99,,2013-04-28 01:33:00,
2013-04-27 20:38:00,69.0,32.0,26.84,SSE,165,4.0,5.0,25,0.00,,,-99.99,,2013-04-28 01:38:00,
2013-04-27 20:43:00,68.0,32.0,26.84,SSE,162,6.0,7.0,27,0.00,,,-99.99,,2013-04-28 01:43:00,
2013-04-27 20:48:00,68.0,32.0,26.84,SSE,164,6.0,6.0,26,0.00,,,-99.99,,2013-04-28 01:48:00,
2013-04-27 20:58:00,67.0,32.0,26.84,South,171,5.0,5.0,27,0.00,,,-99.99,,2013-04-28 01:58:00,
2013-04-27 21:03:00,67.0,27.0,26.84,SSE,165,4.0,5.0,21,0.00,,,-99.99,,2013-04-28 02:03:00,
2013-04-27 21:13:00,67.0,18.0,26.84,SE,140,10.0,13.0,15,0.00,,,-99.99,,2013-04-28 02:13:00,
2013-04-27 21:18:00,66.0,23.0,26.85,SSE,147,12.0,14.0,20,0.00,,,-99.99,,2013-04-28 02:18:00,
2013-04-27 21:28:00,64.0,36.0,26.85,SSE,149,10.0,12.0,35,0.00,,,-99.99,,2013-04-28 02:28:00,
2013-04-27 21:33:00,63.0,37.0,26.85,SSE,164,10.0,13.0,38,0.00,,,-99.99,,2013-04-28 02:33:00,
2013-04-27 21:38:00,63.0,34.0,26.85,South,173,13.0,17.0,34,0.00,,,-99.99,,2013-04-28 02:38:00,
2013-04-27 21:43:00,63.0,34.0,26.85,SSE,159,15.0,19.0,34,0.00,,,-99.99,,2013-04-28 02:43:00,
2013-04-27 21:48:00,63.0,30.0,26.85,South,175,16.0,20.0,30,0.00,,,-99.99,,2013-04-28 02:48:00,
2013-04-27 21:58:00,63.0,30.0,26.86,South,175,16.0,21.0,28,0.00,,,-99.99,,2013-04-28 02:58:00,
2013-04-27 22:03:00,63.0,30.0,26.86,South,182,17.0,22.0,30,0.00,,,-99.99,,2013-04-28 03:03:00,
2013-04-27 22:13:00,63.0,32.0,26.86,South,183,16.0,20.0,32,0.00,,,-99.99,,2013-04-28 03:13:00,
2013-04-27 22:18:00,63.0,34.0,26.86,South,185,14.0,17.0,33,0.00,,,-99.99,,2013-04-28 03:18:00,
2013-04-27 22:28:00,62.0,36.0,26.87,South,182,14.0,19.0,36,0.00,,,-99.99,,2013-04-28 03:28:00,
2013-04-27 22:33:00,61.0,34.0,26.87,South,185,14.0,19.0,37,0.00,,,-99.99,,2013-04-28 03:33:00,
2013-04-27 22:43:00,61.0,36.0,26.87,South,189,12.0,15.0,39,0.00,,,-99.99,,2013-04-28 03:43:00,
2013-04-27 22:48:00,60.0,36.0,26.87,South,185,13.0,15.0,40,0.00,,,-99.99,,2013-04-28 03:48:00,
2013-04-27 22:58:00,60.0,37.0,26.88,SSW,202,13.0,16.0,42,0.00,,,-99.99,,2013-04-28 03:58:00,
2013-04-27 23:03:00,59.0,37.0,26.87,South,190,12.0,15.0,44,0.00,,,-99.99,,2013-04-28 04:03:00,
2013-04-27 23:08:00,59.0,36.0,26.87,South,182,13.0,16.0,41,0.00,,,-99.99,,2013-04-28 04:08:00,
2013-04-27 23:13:00,59.0,39.0,26.87,SSW,195,11.0,13.0,47,0.00,,,-99.99,,2013-04-28 04:13:00,
2013-04-27 23:18:00,58.0,37.0,26.87,South,185,10.0,12.0,46,0.00,,,-99.99,,2013-04-28 04:18:00,
2013-04-27 23:23:00,58.0,39.0,26.87,SSW,195,10.0,12.0,49,0.00,,,-99.99,,2013-04-28 04:23:00,
2013-04-27 23:28:00,58.0,41.0,26.87,SSW,200,9.0,10.0,53,0.00,,,-99.99,,2013-04-28 04:28:00,
2013-04-27 23:33:00,57.0,39.0,26.87,South,190,10.0,12.0,53,0.00,,,-99.99,,2013-04-28 04:33:00,
2013-04-27 23:38:00,57.0,39.0,26.86,South,189,10.0,13.0,52,0.00,,,-99.99,,2013-04-28 04:38:00,
2013-04-27 23:48:00,57.0,41.0,26.86,SSW,203,10.0,13.0,55,0.00,,,-99.99,,2013-04-28 04:48:00,
2013-04-27 23:53:00,56.0,39.0,26.86,SSW,197,11.0,12.0,54,0.00,,,-99.99,,2013-04-28 04:53:00,